Location: Bastrop State Park
(30.1090°N, 97.2819°W)
Time: 12:01:25
(UTC-05:00)

Daily predictions for brighter satellites

Satellite Brightness Start Highest point End
(mag) Time Altitude Azimuth Time Altitude Azimuth Time Altitude Azimuth
Resurs 01 Rocket 3.1 20:55:23 10° SSW 20:59:31 39° W 21:03:40 10° NNW
Cosmos 1515 Rocket 4.1 20:55:48 10° N 20:59:57 40° E 21:04:03 10° SSE
Cosmos 1980 Rocket 4.3 20:56:42 10° NW 21:01:22 27° WSW 21:06:02 10° SSW
Cosmos 2360 Rocket 3.1 20:57:08 10° N 21:02:11 33° ENE 21:07:14 10° SE
Cosmos 1151 Rocket 4.3 21:00:20 10° NNE 21:03:52 24° E 21:07:24 10° SE
ERBS 3.5 21:01:06 10° S 21:03:59 24° ESE 21:06:53 10° ENE
ERS-1 Rocket 4.1 21:00:36 10° SE 21:04:48 27° ENE 21:09:00 10° NNE
ATLAS CENTAUR R/B 3.7 21:03:46 10° WNW 21:07:03 22° WSW 21:10:07 10° SSW
Sakura Rocket 3.8 21:03:20 10° SW 21:08:03 34° SSE 21:11:46 10° E
SL-16 R/B 2.5 21:03:31 10° NNW 21:09:10 73° WSW 21:14:48 10° SSE
Cosmos 1674 2.9 21:08:21 10° S 21:12:04 52° E 21:15:50 10° NNE
NOSS 3-1 (C) 3.3 21:11:17 10° SSW 21:16:59 75° ESE 21:23:09 10° NNE
Cosmos 304 Rocket 4.4 21:16:24 10° N 21:20:55 40° ENE 21:24:55 13° SE
Cosmos 1908 3.6 21:18:31 10° N 21:22:18 45° E 21:26:00 10° SSE
Cosmos 2227 Rocket 3.6 21:23:04 12° SE 21:26:08 18° E 21:29:45 10° ENE
Cosmos 2266 Rocket 4.0 21:27:44 10° S 21:34:03 85° E 21:40:16 10° N
Cosmos 1300 4.4 21:32:10 10° NE 21:34:43 17° ENE 21:35:46 15° E
Cosmos 2112 Rocket 4.4 21:30:36 10° N 21:35:38 46° ENE 21:39:25 17° SE
USA 186 2.8 21:35:39 10° SSW 21:37:40 29° W 21:39:44 10° NNW
CZ-4 DEB 3.1 21:35:39 10° S 21:38:49 65° W 21:42:00 10° NNW
H-2A R/B 2.7 21:36:22 17° SE 21:39:31 42° ENE 21:43:47 10° N
SPOT 5 3.9 21:40:03 18° ESE 21:42:22 27° ENE 21:46:23 10° NNE
H-2A R/B 2.7 21:41:28 10° SW 21:44:17 45° SSE 21:54:18 10° E
Cosmos 1666 Rocket 4.3 21:42:23 19° SE 21:44:50 34° E 21:48:50 10° NNE
Cosmos 2298 Rocket 4.0 21:39:42 10° S 21:44:58 68° ESE 21:50:15 10° NNE
Meteor 1-11 4.5 21:41:23 10° SSE 21:46:56 50° E 21:52:25 10° NNE
H-2A R/B 4.2 21:45:03 10° SSW 21:48:33 34° W 21:52:02 10° NNW
OTV 4 2.1 21:48:37 10° W 21:51:22 34° NNW 21:54:07 10° NE
Cosmos 2297 Rocket 3.4 21:51:53 20° ESE 21:52:31 21° E 21:56:37 10° NE
CZ-4B R/B 4.3 21:48:05 10° NE 21:52:38 30° E 21:54:31 24° SE
Hubble Space Telescope 0.9 21:48:57 10° WSW 21:52:58 51° SSE 21:54:58 26° ESE
Cosmos 2333 Rocket 4.1 21:50:06 10° NNE 21:53:23 15° ENE 21:55:43 12° E
Cosmos 2315 Rocket 4.1 21:51:38 10° N 21:57:44 59° E 22:01:52 21° SSE
Cosmos 1726 3.3 21:55:41 10° NNE 21:58:52 26° E 21:59:13 25° E
Cosmos 2219 Rocket 3.6 21:56:41 10° N 22:01:05 23° ENE 22:03:07 19° E
Cosmos 1244 Rocket 4.5 21:55:52 10° S 22:02:05 67° E 22:08:18 10° NNE
Cosmos 2058 2.9 22:00:30 13° S 22:04:08 83° W 22:08:15 10° N
Cosmos 2151 4.1 22:01:22 10° SSW 22:05:21 43° W 22:09:22 10° N
COSMOS 2428 2.9 22:00:08 10° N 22:05:42 56° ENE 22:08:25 30° SE
Meteor 1-4 Rocket 4.1 22:04:20 10° NNE 22:06:57 21° ENE 22:06:57 21° ENE
DELTA 2 R/B (1) 3.5 22:02:24 10° WNW 22:07:58 83° SSW 22:10:38 32° SE
Cosmos 1680 Rocket 3.8 22:05:53 10° NNW 22:11:04 63° WSW 22:14:37 21° S
H-2A R/B 4.0 22:15:25 14° ENE 22:16:18 14° ENE 22:19:05 10° NE
Cosmos 1898 Rocket 3.8 22:11:12 10° SSW 22:16:19 68° WNW 22:21:30 10° N
Cosmos 1745 Rocket 4.3 22:16:53 31° SE 22:19:16 46° E 22:25:07 10° NNE
Cosmos 1939 Rocket 3.3 22:18:36 28° SSW 22:20:27 54° W 22:24:16 10° NNW
Delta 2 Rocket 3.9 22:17:33 10° WNW 22:21:06 41° N 22:22:04 33° NE
MetOp-B 4.1 22:23:27 39° SE 22:25:23 66° ENE 22:30:41 10° N
Cosmos 2237 4.2 22:21:27 10° NNW 22:27:12 86° WSW 22:29:34 37° SSE
CZ-4 SHROUD 3.4 22:28:39 69° NNW 22:28:39 69° NNW 22:31:27 10° NNW
SPOT 1/Viking Rocket 3.9 22:27:31 40° ESE 22:28:37 46° ENE 22:33:32 10° N
Sich 1 3.4 22:31:28 28° SSW 22:33:40 64° W 22:38:03 10° N
OAO 2 Rocket 4.2 22:29:03 10° W 22:34:13 50° N 22:38:01 18° ENE
Cosmos 1626 3.8 22:36:48 23° NE 22:36:48 23° NE 22:38:39 10° NNE
Cosmos 2237 Rocket 3.2 22:32:22 10° N 22:37:24 31° ENE 22:38:17 30° E
Cosmos 2082 3.6 22:33:51 21° SSW 22:37:50 84° ESE 22:43:34 10° NNE
BREEZE M DEB (TANK) 4.0 22:36:34 10° W 22:38:38 24° SSW 22:38:38 24° SSW
YAOGAN 6 2.7 22:39:28 67° NNE 22:39:28 67° NNE 22:42:41 10° N
Iridium 2 4.2 22:40:38 48° NE 22:40:38 48° NE 22:43:40 10° N
Cosmos 1271 Rocket 3.0 22:37:23 10° N 22:40:45 57° NE 22:40:45 57° NE
Cosmos 1633 Rocket 3.6 22:39:38 29° SSW 22:41:36 54° W 22:45:53 10° N
Cosmos 2333 4.2 22:36:59 10° NNW 22:42:45 87° WSW 22:44:23 49° SSE
ATLAS 2AS CENTAUR R/B 2.9 22:37:13 10° SSW 22:44:28 89° WNW 22:52:26 10° NNE
Cosmos 2360 Rocket 3.9 22:41:24 10° NW 22:45:57 25° WSW 22:49:31 14° SSW
NOAA 11 4.3 22:45:11 51° ESE 22:45:59 56° ENE 22:51:18 10° N
Cosmos 1703 3.6 22:50:09 59° W 22:50:17 60° W 22:54:09 10° N
Envisat 4.2 22:48:32 23° SSW 22:50:58 37° W 22:55:39 10° NNW
Cosmos 2242 Rocket 3.5 22:49:57 10° N 22:54:28 79° W 22:54:37 78° SW
CZ-4 R/B 3.9 22:52:23 10° N 22:57:15 77° WNW 22:58:03 61° SW
ATLAS 3B R/B 3.9 22:53:18 10° N 22:58:53 26° NE 23:00:41 23° ENE
Sakura Rocket 4.3 22:57:38 10° WSW 22:59:47 27° WSW 22:59:47 27° WSW
Cosmos 2227 Rocket 3.1 23:04:43 12° SW 23:09:43 46° WNW 23:15:09 10° N
USA 32 4.3 23:07:11 10° NNW 23:12:21 60° W 23:13:03 55° SW
FALCON 9 R/B 4.2 22:46:06 10° W 23:15:45 72° N 23:20:47 25° ENE
DMSP B5D2-2 4.3 23:16:00 10° NNE 23:20:22 61° NE 23:20:22 61° NE
ARGOS 3.6 23:26:16 53° WSW 23:26:31 53° W 23:31:47 10° NNW
OTV 4 4.0 23:26:06 10° NW 23:26:19 11° NW 23:26:19 11° NW
Cosmos 1455 4.1 23:28:52 10° NNW 23:30:51 28° NNW 23:30:51 28° NNW
SL-16 R/B 3.1 23:27:53 10° N 23:32:32 39° NE 23:32:32 39° NE
Hubble Space Telescope 3.5 23:30:00 10° W 23:30:22 12° W 23:30:22 12° W
Cosmos 2297 Rocket 3.3 23:33:34 25° WSW 23:36:12 39° WNW 23:41:29 10° N
Cosmos 2333 Rocket 2.5 23:32:22 10° NNW 23:37:44 60° W 23:37:44 60° W
Cosmos 44 Rocket 4.2 23:43:24 50° N 23:43:24 50° N 23:47:24 10° NNE
Cosmos 2219 Rocket 3.2 23:39:57 10° NW 23:44:50 36° W 23:44:50 36° W
Lacrosse 4 Rocket 3.3 23:42:54 10° N 23:45:16 28° N 23:45:16 28° N
Terra 3.0 23:53:15 41° NW 23:53:15 41° NW 23:56:26 10° NNW
